Flag for U.S.A. Weather past 2 weeks in Antioch, California, U.S.A.

Now
69 °F

Sunny.


Feels Like: 69 °F
Forecast: 59 / 71 °F
Wind: 10 mph from West

Location: Buchanan Field

Current Time: Oct 24, 2014 at 5:44:19 PM

Latest Report: Oct 24, 2014 at 4:53 PM


Visibility: 10 mi

Pressure: 29.83 "Hg

Humidity: 61%

Dew point: 55 °F

Location of AntiochLocation

Historic Weather in Antioch — Graph

°F

Antioch temperature yesterday

Maximum temperature yesterday: 74 °F (at 12:53 PM)
Minimum temperature yesterday: 58 °F (at 4:53 AM)
Average temperature yesterday: 65 °F

Past Weeks' High & Low Weather Summary

 TemperatureHumidityPressure
High92 °F (Oct 12, 2:53 PM)93% (Oct 15, 3:53 AM)30.07 "Hg (Oct 15, 3:53 AM)
Low49 °F (Oct 21, 7:53 AM)6% (Oct 12, 2:53 PM)29.78 "Hg (Oct 14, 5:53 PM)
Average65 °F64%29.92 "Hg
* Reported Oct 9 3:53 PM — Oct 24 3:53 PM, Antioch, Weather by CustomWeather, © 2014

Note: Actual official high and low records may vary slightly from our data, if they occured in-between our weather recording intervals... More about our weather records

Advertising

Antioch weather history for previous 24 hours

 ConditionsComfort  
Time TempWeatherWind HumidityBarometerVisibility
3:53 PM
Oct 24
71 °FSunny.15 mph57%29.84 "Hg10 mi
2:53 PM74 °FSunny.10 mph48%29.84 "Hg10 mi
1:53 PM74 °FSunny.No wind46%29.85 "Hg10 mi
12:53 PM72 °FSunny.5 mph52%29.89 "Hg10 mi
11:53 AM68 °FSunny.7 mph59%29.91 "Hg10 mi
10:53 AM66 °FSunny.3 mph61%29.93 "Hg10 mi
9:53 AM62 °FSunny.N/A67%29.94 "Hg10 mi
8:53 AM57 °FSunny.3 mph78%29.94 "Hg10 mi
7:53 AM52 °FClear.5 mph86%29.93 "Hg10 mi
6:53 AM55 °FClear.No wind80%29.93 "Hg10 mi
5:53 AM58 °FClear.3 mph75%29.93 "Hg10 mi
4:53 AM59 °FClear.6 mph72%29.93 "Hg10 mi
3:53 AM59 °FClear.3 mph72%29.93 "Hg10 mi
2:53 AM60 °FClear.5 mph72%29.94 "Hg10 mi
1:53 AM60 °FClear.No wind75%29.95 "Hg10 mi
12:53 AM60 °FClear.No wind75%29.96 "Hg10 mi
11:53 PM
Oct 23
60 °FClear.5 mph78%29.96 "Hg10 mi
10:53 PM60 °FClear.5 mph78%29.96 "Hg10 mi
9:53 PM62 °FClear.6 mph75%29.95 "Hg10 mi
8:53 PM64 °FClear.No wind78%29.93 "Hg10 mi
7:53 PM65 °FClear.No wind76%29.93 "Hg10 mi
6:53 PM68 °FSunny.6 mph68%29.93 "Hg10 mi
5:53 PM72 °FSunny.8 mph55%29.93 "Hg10 mi
Weather by CustomWeather, © 2014

See weather overviewHow to use our weather pages